Flag for Mexico Weather past 2 weeks in Puerto Vallarta, Jalisco, Mexico

Now
82 °F

Passing clouds.


Feels Like: 87 °F
Forecast: 71 / 87 °F
Wind: 3 mph from Northeast

Location: Puerto Vallarta / Lic

Current Time: Sep 19, 2014 at 10:57:03 PM

Latest Report: Sep 19, 2014 at 8:46 PM


Visibility: 12 mi

Pressure: 29.77 "Hg

Humidity: 70%

Dew point: 72 °F

Location of Puerto VallartaLocation

Historic Weather in Puerto Vallarta — Graph

°F

Puerto Vallarta temperature yesterday

Maximum temperature yesterday: 88 °F (at 1:46 PM)
Minimum temperature yesterday: 75 °F (at 2:46 AM)
Average temperature yesterday: 80 °F

Past Weeks' High & Low Weather Summary

 TemperatureHumidityPressure
High91 °F (Sep 5, 2:49 PM)94% (Sep 6, 7:47 PM)29.93 "Hg (Sep 6, 7:47 PM)
Low73 °F (Sep 10, 9:45 PM)49% (Sep 15, 2:47 PM)29.49 "Hg (Sep 10, 6:47 AM)
Average81 °F79%29.81 "Hg
* Reported Sep 4 8:50 PM — Sep 19 8:46 PM, Puerto Vallarta, Weather by CustomWeather, © 2014

Note: Actual official high and low records may vary slightly from our data, if they occured in-between our weather recording intervals... More about our weather records

Advertising

Puerto Vallarta weather history for previous 24 hours

 ConditionsComfort  
Time TempWeatherWind HumidityBarometerVisibility
8:46 PM
Sep 19
82 °FPassing clouds.3 mph70%29.77 "Hg12 mi
7:46 PM86 °FScattered clouds.5 mph62%29.76 "Hg12 mi
6:48 PM88 °FPartly sunny.No wind55%29.73 "Hg15 mi
5:45 PM90 °FScattered clouds.No wind49%29.76 "Hg15 mi
4:45 PM90 °FPartly sunny.6 mph52%29.77 "Hg15 mi
3:47 PM88 °FPartly sunny.9 mph59%29.77 "Hg15 mi
2:48 PM86 °FPartly sunny.6 mph59%29.81 "Hg15 mi
11:48 AM82 °FPartly sunny.No wind79%29.83 "Hg15 mi
10:49 AM82 °FPartly sunny.3 mph79%29.83 "Hg15 mi
8:50 AM77 °FMostly cloudy.No wind89%29.80 "Hg15 mi
7:46 AM77 °FMostly cloudy.No wind89%29.78 "Hg15 mi
6:51 AM79 °FPassing clouds.3 mph84%29.75 "Hg12 mi
5:47 AM77 °FOvercast.3 mph89%29.78 "Hg12 mi
4:45 AM77 °FMostly cloudy.No wind89%29.80 "Hg12 mi
3:47 AM77 °FMostly cloudy.3 mph89%29.77 "Hg12 mi
2:45 AM77 °FPartly cloudy.6 mph89%29.82 "Hg12 mi
1:46 AM77 °FPartly cloudy.5 mph89%29.82 "Hg12 mi
12:48 AM77 °FMostly cloudy.No wind94%29.80 "Hg12 mi
11:47 PM
Sep 18
77 °FMostly cloudy.No wind89%29.82 "Hg12 mi
10:46 PM77 °FMostly cloudy.No wind89%29.81 "Hg12 mi
Weather by CustomWeather, © 2014

See weather overviewHow to use our weather pages